Weather History for KIML - May, 2013

Change the Weather History Date:

Tuesday, May 14, 2013

  Actual Average Record
Temperature  
Mean Temperature 76 °F 59 °F  
Max Temperature 98 °F 73 °F 98 °F (2013)
Min Temperature 54 °F 46 °F 22 °F (1909)
Degree Days  
Heating Degree Days 0 7  
Month to date heating degree days 164 125  
Cooling Degree Days 11 1  
Month to date cooling degree days 18 10  
Year to date cooling degree days 20 11  
Growing Degree Days 26 (Base 50)    
Moisture  
Dew Point 40 °F    
Average Humidity 36    
Maximum Humidity 61    
Minimum Humidity 10    
Precipitation  
Precipitation 0.00 in 0.08 in 1.79 in (1908)
Sea Level Pressure  
Sea Level Pressure 29.76 in    
Wind  
Wind Speed 9 mph (WNW)    
Max Wind Speed 22 mph    
Max Gust Speed 29 mph    
Visibility 10 miles    
Events Thunderstorm    
T = Trace of Precipitation, MM = Missing Value Source: NWS Daily Summary

Daily Weather History Graph

Daily Weather History Graph

Search for Another Location

Airport or City:

Trip Planner

Search our weather history database for the weather conditions in past years. The results will help you decide how hot, cold, wet, or windy it might be!

Date:

Astronomy

May. 14, 2013 Rise Set
Actual Time 5:30 AM MDT 7:55 PM MDT
Civil Twilight 4:59 AM MDT 8:26 PM MDT
Nautical Twilight 4:21 AM MDT 9:04 PM MDT
Astronomical Twilight 3:39 AM MDT 9:47 PM MDT
Moon 9:12 AM MDT (5/14) 11:44 PM MDT (5/14)
Length of Visible Light 15h 26m
Length of Day
14h 25m
Waxing Crescent, 19% of the Moon is Illuminated
May 14
Waxing Crescent
May 17
First Quarter
May 24
Full
May 31
Last Quarter
Jun 8
New

Hourly Weather History & Observations

Time (MDT) Temp. Dew Point Humidity Pressure Visibility Wind Dir Wind Speed Gust Speed Precip Events Conditions
12:53 AM 61.0 °F 41.0 °F 48% 29.81 in 10.0 mi WSW 6.9 mph - N/A   Clear
1:53 AM 59.0 °F 42.1 °F 53% 29.79 in 10.0 mi SW 3.5 mph - N/A   Clear
2:53 AM 55.9 °F 42.1 °F 60% 29.79 in 10.0 mi WSW 4.6 mph - N/A   Clear
3:53 AM 55.0 °F 42.1 °F 62% 29.80 in 10.0 mi WSW 6.9 mph - N/A   Clear
4:53 AM 55.9 °F 42.1 °F 60% 29.79 in 10.0 mi West 8.1 mph - N/A   Clear
5:53 AM 55.9 °F 43.0 °F 62% 29.80 in 10.0 mi West 8.1 mph - N/A   Clear
6:53 AM 61.0 °F 45.0 °F 56% 29.79 in 10.0 mi WSW 9.2 mph - N/A   Clear
7:53 AM 69.1 °F 46.0 °F 44% 29.80 in 10.0 mi WSW 8.1 mph - N/A   Clear
8:53 AM 79.0 °F 51.1 °F 38% 29.79 in 10.0 mi West 8.1 mph - N/A   Clear
9:53 AM 82.0 °F 46.9 °F 29% 29.78 in 10.0 mi WNW 9.2 mph - N/A   Clear
10:53 AM 93.0 °F 44.1 °F 18% 29.75 in 10.0 mi NW 10.4 mph - N/A   Clear
11:53 AM 96.1 °F 34.0 °F 11% 29.74 in 10.0 mi NNW 11.5 mph 21.9 mph N/A   Clear
12:53 PM 96.1 °F 32.0 °F 10% 29.73 in 10.0 mi NNW 13.8 mph 21.9 mph N/A   Clear
1:53 PM 97.0 °F 32.0 °F 10% 29.71 in 10.0 mi North 8.1 mph 23.0 mph N/A   Clear
2:53 PM 98.1 °F 32.0 °F 10% 29.70 in 10.0 mi North 11.5 mph 17.3 mph N/A   Clear
3:53 PM 95.0 °F 30.0 °F 10% 29.68 in 10.0 mi NE 4.6 mph - N/A   Clear
4:53 PM 93.0 °F 32.0 °F 12% 29.67 in 10.0 mi NE 11.5 mph - N/A   Clear
5:53 PM 93.0 °F 34.0 °F 12% 29.66 in 10.0 mi ENE 13.8 mph - N/A   Clear
6:53 PM 88.0 °F 37.0 °F 16% 29.66 in 10.0 mi ENE 10.4 mph - N/A   Clear
7:53 PM 82.0 °F 41.0 °F 23% 29.67 in 10.0 mi ENE 9.2 mph - N/A   Clear
8:53 PM 78.1 °F 44.1 °F 30% 29.69 in 10.0 mi East 10.4 mph - N/A   Clear
9:31 PM 82.4 °F 39.2 °F 21% 29.82 in 10.0 mi WSW 17.3 mph - N/A   Partly Cloudy
9:39 PM 80.6 °F 41.0 °F 24% 29.83 in 10.0 mi SW 8.1 mph - N/A   Partly Cloudy
9:46 PM 78.8 °F 42.8 °F 28% 29.85 in 10.0 mi SSW 11.5 mph - N/A Thunderstorm Partly Cloudy
9:53 PM 81.0 °F 39.9 °F 23% 29.74 in 10.0 mi SSW 10.4 mph - N/A Thunderstorm Scattered Clouds
10:01 PM 82.4 °F 39.2 °F 21% 29.85 in 10.0 mi South 11.5 mph 17.3 mph N/A   Mostly Cloudy
10:53 PM 77.0 °F 43.0 °F 30% 29.73 in 10.0 mi NE 12.7 mph - N/A   Mostly Cloudy
11:53 PM 75.9 °F 43.0 °F 31% 29.75 in 10.0 mi North 6.9 mph - N/A   Overcast